| time (UTC) | temp F | wind direction | speed MPH | gust MPH | rain 1hr in | rain 24hr in | rain mn in | humidity % | barometer mb |
| 20260903005403 | 84 | 103 | 1.0 | 6.0 | 0.00 | 0.00 | 0.00 | 26 | 1016.9 |
| 20260903004503 | 84 | 108 | 2.0 | 7.0 | 0.00 | 0.00 | 0.00 | 26 | 1016.8 |
| 20260903003819 | 85 | 104 | 2.0 | 7.0 | 0.00 | 0.00 | 0.00 | 25 | 1016.9 |
| 20260903002918 | 85 | 86 | 2.0 | 4.0 | 0.00 | 0.00 | 0.00 | 25 | 1016.7 |
| 20260903001803 | 86 | 111 | 2.0 | 7.0 | 0.00 | 0.00 | 0.00 | 24 | 1016.6 |
| 20260903000903 | 86 | 108 | 2.0 | 6.0 | 0.00 | 0.00 | 0.00 | 24 | 1016.6 |
| 20260903000003 | 87 | 105 | 2.0 | 6.0 | 0.00 | 0.00 | 0.00 | 24 | 1016.8 |
| 20260902235403 | 87 | 123 | 2.0 | 6.0 | 0.00 | 0.00 | 0.00 | 24 | 1016.8 |
| 20260902234503 | 87 | 155 | 1.0 | 7.0 | 0.00 | 0.00 | 0.00 | 22 | 1016.8 |
| 20260902233603 | 88 | 149 | 1.0 | 4.0 | 0.00 | 0.00 | 0.00 | 23 | 1016.9 |
| 20260902232918 | 88 | 122 | 1.0 | 4.0 | 0.00 | 0.00 | 0.00 | 24 | 1016.8 |
| 20260902231803 | 88 | 189 | 1.0 | 5.0 | 0.00 | 0.00 | 0.00 | 24 | 1016.9 |
| 20260902230903 | 88 | 206 | 1.0 | 3.0 | 0.00 | 0.00 | 0.00 | 23 | 1016.9 |
| 20260902230003 | 88 | 220 | 1.0 | 3.0 | 0.00 | 0.00 | 0.00 | 25 | 1017.1 |
| 20260902225403 | 88 | 164 | 1.0 | 4.0 | 0.00 | 0.00 | 0.00 | 25 | 1017.0 |
| 20260902224503 | 88 | 142 | 1.0 | 4.0 | 0.00 | 0.00 | 0.00 | 23 | 1017.0 |
| 20260902223818 | 88 | 135 | 1.0 | 4.0 | 0.00 | 0.00 | 0.00 | 22 | 1017.1 |
| 20260902222703 | 88 | 114 | 1.0 | 8.0 | 0.00 | 0.00 | 0.00 | 23 | 1016.9 |
| 20260902221803 | 88 | 132 | 1.0 | 6.0 | 0.00 | 0.00 | 0.00 | 24 | 1017.2 |
| 20260902220903 | 88 | 117 | 1.0 | 4.0 | 0.00 | 0.00 | 0.00 | 22 | 1017.3 |
| 20260902220003 | 88 | 116 | 2.0 | 9.0 | 0.00 | 0.00 | 0.00 | 24 | 1017.4 |
| 20260902215403 | 88 | 117 | 1.0 | 8.0 | 0.00 | 0.00 | 0.00 | 24 | 1017.5 |
| 20260902214503 | 88 | 242 | 1.0 | 4.0 | 0.00 | 0.00 | 0.00 | 28 | 1017.8 |
| 20260902213603 | 88 | 236 | 1.0 | 5.0 | 0.00 | 0.00 | 0.00 | 25 | 1018.0 |
| 20260902212703 | 88 | 166 | 1.0 | 5.0 | 0.00 | 0.00 | 0.00 | 24 | 1017.9 |
| 20260902211803 | 88 | 213 | 1.0 | 5.0 | 0.00 | 0.00 | 0.00 | 25 | 1018.0 |
| 20260902210903 | 88 | 103 | 1.0 | 11.0 | 0.00 | 0.00 | 0.00 | 27 | 1018.1 |
| 20260902210003 | 87 | 56 | 1.0 | 4.0 | 0.00 | 0.00 | 0.00 | 25 | 1018.4 |
| 20260902205403 | 88 | 12 | 1.0 | 5.0 | 0.00 | 0.00 | 0.00 | 25 | 1018.4 |
| 20260902204503 | 88 | 345 | 1.0 | 5.0 | 0.00 | 0.00 | 0.00 | 25 | 1018.6 |
| 20260902203603 | 89 | 156 | 1.0 | 3.0 | 0.00 | 0.00 | 0.00 | 26 | 1018.8 |
| 20260902202917 | 89 | 142 | 1.0 | 4.0 | 0.00 | 0.00 | 0.00 | 26 | 1019.0 |
| 20260902201803 | 89 | 87 | 2.0 | 6.0 | 0.00 | 0.00 | 0.00 | 25 | 1019.0 |
| 20260902200903 | 89 | 315 | 2.0 | 6.0 | 0.00 | 0.00 | 0.00 | 25 | 1019.1 |
| 20260902200003 | 90 | 163 | 1.0 | 3.0 | 0.00 | 0.00 | 0.00 | 23 | 1019.2 |
| 20260902195618 | 90 | 123 | 1.0 | 4.0 | 0.00 | 0.00 | 0.00 | 26 | 1019.3 |
| 20260902194503 | 90 | 127 | 1.0 | 4.0 | 0.00 | 0.00 | 0.00 | 28 | 1019.2 |
| 20260902193603 | 90 | 108 | 2.0 | 7.0 | 0.00 | 0.00 | 0.00 | 28 | 1019.4 |
| 20260902192703 | 90 | 120 | 0.0 | 3.0 | 0.00 | 0.00 | 0.00 | 26 | 1019.4 |
| 20260902191803 | 90 | 72 | 1.0 | 5.0 | 0.00 | 0.00 | 0.00 | 27 | 1019.6 |
| 20260902190903 | 89 | 85 | 1.0 | 5.0 | 0.00 | 0.00 | 0.00 | 27 | 1019.9 |
| 20260902190003 | 89 | 117 | 1.0 | 4.0 | 0.00 | 0.00 | 0.00 | 26 | 1020.1 |
| 20260902185618 | 89 | 64 | 1.0 | 4.0 | 0.00 | 0.00 | 0.00 | 27 | 1020.1 |
| 20260902184503 | 89 | 74 | 2.0 | 6.0 | 0.00 | 0.00 | 0.00 | 24 | 1020.3 |
| 20260902183603 | 89 | 113 | 1.0 | 4.0 | 0.00 | 0.00 | 0.00 | 25 | 1020.4 |
| 20260902182703 | 89 | 150 | 1.0 | 3.0 | 0.00 | 0.00 | 0.00 | 26 | 1020.4 |
| 20260902181803 | 89 | 165 | 1.0 | 4.0 | 0.00 | 0.00 | 0.00 | 29 | 1020.7 |
| 20260902180903 | 89 | 112 | 1.0 | 4.0 | 0.00 | 0.00 | 0.00 | 26 | 1020.8 |
| 20260902180218 | 88 | 118 | 1.0 | 4.0 | 0.00 | 0.00 | 0.00 | 26 | 1020.9 |
| 20260902175403 | 88 | 119 | 1.0 | 4.0 | 0.00 | 0.00 | 0.00 | 29 | 1021.0 |
| 20260902174503 | 88 | 98 | 1.0 | 4.0 | 0.00 | 0.00 | 0.00 | 26 | 1021.2 |
| 20260902173603 | 88 | 317 | 0.0 | 3.0 | 0.00 | 0.00 | 0.00 | 28 | 1021.1 |
| 20260902172703 | 88 | 291 | 0.0 | 3.0 | 0.00 | 0.00 | 0.00 | 26 | 1021.1 |
| 20260902171803 | 88 | 95 | 0.0 | 3.0 | 0.00 | 0.00 | 0.00 | 27 | 1021.3 |
| 20260902170903 | 88 | 104 | 1.0 | 5.0 | 0.00 | 0.00 | 0.00 | 26 | 1021.2 |
| 20260902170003 | 89 | 109 | 1.0 | 4.0 | 0.00 | 0.00 | 0.00 | 27 | 1021.4 |
| 20260902165403 | 89 | 114 | 1.0 | 4.0 | 0.00 | 0.00 | 0.00 | 26 | 1021.2 |
| 20260902164503 | 88 | 84 | 0.0 | 3.0 | 0.00 | 0.00 | 0.00 | 28 | 1021.4 |
| 20260902163603 | 87 | 101 | 0.0 | 3.0 | 0.00 | 0.00 | 0.00 | 33 | 1021.4 |
| 20260902162915 | 87 | 85 | 1.0 | 2.0 | 0.00 | 0.00 | 0.00 | 28 | 1021.6 |
| 20260902161803 | 86 | 0 | 0.0 | 0.0 | 0.00 | 0.00 | 0.00 | 33 | 1021.6 |
| 20260902160903 | 85 | 0 | 0.0 | 0.0 | 0.00 | 0.00 | 0.00 | 31 | 1021.6 |
| 20260902160003 | 84 | 0 | 0.0 | 0.0 | 0.00 | 0.00 | 0.00 | 31 | 1021.7 |
| 20260902155403 | 84 | 0 | 0.0 | 0.0 | 0.00 | 0.00 | 0.00 | 31 | 1021.6 |
| 20260902154503 | 83 | 0 | 0.0 | 0.0 | 0.00 | 0.00 | 0.00 | 35 | 1021.4 |
| 20260902153603 | 82 | 0 | 0.0 | 0.0 | 0.00 | 0.00 | 0.00 | 38 | 1021.6 |
| 20260902152703 | 80 | 133 | 0.0 | 1.0 | 0.00 | 0.00 | 0.00 | 45 | 1021.6 |
| 20260902151803 | 78 | 124 | 0.0 | 2.0 | 0.00 | 0.00 | 0.00 | 48 | 1021.7 |
| 20260902150903 | 77 | 0 | 0.0 | 0.0 | 0.00 | 0.00 | 0.00 | 48 | 1021.6 |
| 20260902150003 | 75 | 0 | 0.0 | 0.0 | 0.00 | 0.00 | 0.00 | 51 | 1021.7 |
| 20260902145403 | 74 | 134 | 0.0 | 2.0 | 0.00 | 0.00 | 0.00 | 53 | 1021.7 |
| 20260902144503 | 73 | 11 | 0.0 | 2.0 | 0.00 | 0.00 | 0.00 | 53 | 1021.6 |
| 20260902143603 | 73 | 0 | 0.0 | 0.0 | 0.00 | 0.00 | 0.00 | 54 | 1021.6 |
| 20260902142705 | 70 | 0 | 0.0 | 0.0 | 0.00 | 0.00 | 0.00 | 56 | 1021.4 |
| 20260902141803 | 68 | 0 | 0.0 | 0.0 | 0.00 | 0.00 | 0.00 | 61 | 1021.4 |
| 20260902140903 | 66 | 0 | 0.0 | 0.0 | 0.00 | 0.00 | 0.00 | 67 | 1021.4 |
| 20260902140217 | 65 | 0 | 0.0 | 0.0 | 0.00 | 0.00 | 0.00 | 64 | 1021.4 |
| 20260902135403 | 65 | 0 | 0.0 | 0.0 | 0.00 | 0.00 | 0.00 | 66 | 1021.4 |
| 20260902134503 | 63 | 15 | 0.0 | 2.0 | 0.00 | 0.00 | 0.00 | 71 | 1021.3 |
| 20260902133603 | 60 | 0 | 0.0 | 1.0 | 0.00 | 0.00 | 0.00 | 74 | 1021.1 |
| 20260902132703 | 58 | 0 | 0.0 | 0.0 | 0.00 | 0.00 | 0.00 | 75 | 1021.3 |
| 20260902131803 | 57 | 0 | 0.0 | 0.0 | 0.00 | 0.00 | 0.00 | 74 | 1021.1 |
| 20260902131117 | 57 | 0 | 0.0 | 0.0 | 0.00 | 0.00 | 0.00 | 74 | 1020.9 |
| 20260902130003 | 57 | 0 | 0.0 | 0.0 | 0.00 | 0.00 | 0.00 | 74 | 1020.9 |
| 20260902125403 | 57 | 0 | 0.0 | 0.0 | 0.00 | 0.00 | 0.00 | 76 | 1020.7 |
| 20260902124503 | 57 | 0 | 0.0 | 0.0 | 0.00 | 0.00 | 0.00 | 78 | 1020.6 |
| 20260902123603 | 57 | 0 | 0.0 | 0.0 | 0.00 | 0.00 | 0.00 | 78 | 1020.6 |
| 20260902122703 | 57 | 0 | 0.0 | 0.0 | 0.00 | 0.00 | 0.00 | 78 | 1020.5 |
| 20260902122017 | 58 | 0 | 0.0 | 0.0 | 0.00 | 0.00 | 0.00 | 79 | 1020.5 |
| 20260902120903 | 58 | 0 | 0.0 | 0.0 | 0.00 | 0.00 | 0.00 | 79 | 1020.3 |
| 20260902120003 | 58 | 0 | 0.0 | 0.0 | 0.00 | 0.00 | 0.00 | 78 | 1020.3 |
| 20260902115403 | 58 | 0 | 0.0 | 0.0 | 0.00 | 0.00 | 0.00 | 78 | 1020.3 |
| 20260902114503 | 58 | 0 | 0.0 | 0.0 | 0.00 | 0.00 | 0.00 | 77 | 1020.1 |
| 20260902113603 | 59 | 0 | 0.0 | 0.0 | 0.00 | 0.00 | 0.00 | 76 | 1020.1 |
| 20260902112703 | 59 | 0 | 0.0 | 0.0 | 0.00 | 0.00 | 0.00 | 76 | 1020.0 |
| 20260902111803 | 60 | 0 | 0.0 | 0.0 | 0.00 | 0.00 | 0.00 | 75 | 1020.0 |
| 20260902110903 | 60 | 0 | 0.0 | 0.0 | 0.00 | 0.00 | 0.00 | 74 | 1020.1 |
| 20260902110004 | 60 | 0 | 0.0 | 0.0 | 0.00 | 0.00 | 0.00 | 73 | 1020.0 |
| 20260902105403 | 60 | 0 | 0.0 | 0.0 | 0.00 | 0.00 | 0.00 | 74 | 1020.1 |
| 20260902104503 | 60 | 0 | 0.0 | 0.0 | 0.00 | 0.00 | 0.00 | 75 | 1020.1 |
| 20260902103603 | 60 | 0 | 0.0 | 0.0 | 0.00 | 0.00 | 0.00 | 77 | 1019.9 |
| 20260902102703 | 60 | 0 | 0.0 | 0.0 | 0.00 | 0.00 | 0.00 | 77 | 1020.1 |
| 20260902101803 | 60 | 0 | 0.0 | 0.0 | 0.00 | 0.00 | 0.00 | 77 | 1020.1 |
| 20260902100903 | 60 | 292 | 0.0 | 1.0 | 0.00 | 0.00 | 0.00 | 76 | 1020.1 |
| 20260902100003 | 61 | 298 | 1.0 | 4.0 | 0.00 | 0.00 | 0.00 | 76 | 1020.0 |
| 20260902095403 | 61 | 304 | 1.0 | 4.0 | 0.00 | 0.00 | 0.00 | 75 | 1020.0 |
| 20260902094503 | 61 | 295 | 1.0 | 4.0 | 0.00 | 0.00 | 0.00 | 75 | 1019.9 |
| 20260902093603 | 61 | 293 | 2.0 | 4.0 | 0.00 | 0.00 | 0.00 | 75 | 1020.1 |
| 20260902092703 | 62 | 299 | 2.0 | 4.0 | 0.00 | 0.00 | 0.00 | 74 | 1020.3 |
| 20260902091803 | 62 | 297 | 2.0 | 4.0 | 0.00 | 0.00 | 0.00 | 74 | 1020.3 |
| 20260902090903 | 62 | 107 | 0.0 | 2.0 | 0.00 | 0.00 | 0.00 | 74 | 1020.3 |
| 20260902090003 | 62 | 107 | 0.0 | 2.0 | 0.00 | 0.00 | 0.00 | 74 | 1020.5 |
| 20260902085403 | 62 | 0 | 0.0 | 0.0 | 0.00 | 0.00 | 0.00 | 73 | 1020.5 |
| 20260902084503 | 63 | 0 | 0.0 | 0.0 | 0.00 | 0.00 | 0.00 | 72 | 1020.5 |
| 20260902083603 | 63 | 0 | 0.0 | 0.0 | 0.00 | 0.00 | 0.00 | 72 | 1020.4 |
| 20260902082703 | 63 | 0 | 0.0 | 0.0 | 0.00 | 0.00 | 0.00 | 72 | 1020.4 |
| 20260902081803 | 63 | 0 | 0.0 | 0.0 | 0.00 | 0.00 | 0.00 | 72 | 1020.4 |
| 20260902080903 | 63 | 0 | 0.0 | 0.0 | 0.00 | 0.00 | 0.00 | 71 | 1020.7 |
| 20260902080003 | 64 | 0 | 0.0 | 0.0 | 0.00 | 0.00 | 0.00 | 71 | 1020.7 |
| 20260902075403 | 64 | 0 | 0.0 | 0.0 | 0.00 | 0.00 | 0.00 | 71 | 1020.7 |
| 20260902074503 | 64 | 0 | 0.0 | 0.0 | 0.00 | 0.00 | 0.00 | 71 | 1020.8 |
| 20260902073603 | 64 | 0 | 0.0 | 0.0 | 0.00 | 0.00 | 0.00 | 70 | 1020.7 |
| 20260902072703 | 64 | 0 | 0.0 | 0.0 | 0.00 | 0.00 | 0.00 | 69 | 1020.8 |
| 20260902071803 | 65 | 0 | 0.0 | 0.0 | 0.00 | 0.00 | 0.00 | 68 | 1020.7 |
| 20260902070903 | 65 | 0 | 0.0 | 0.0 | 0.00 | 0.00 | 0.00 | 68 | 1020.7 |
| 20260902070003 | 65 | 0 | 0.0 | 0.0 | 0.00 | 0.00 | 0.00 | 67 | 1020.8 |
| 20260902065403 | 65 | 0 | 0.0 | 0.0 | 0.00 | 0.00 | 0.00 | 67 | 1020.8 |
| 20260902064503 | 65 | 0 | 0.0 | 0.0 | 0.00 | 0.00 | 0.00 | 67 | 1020.9 |
| 20260902063603 | 66 | 0 | 0.0 | 0.0 | 0.00 | 0.00 | 0.00 | 67 | 1020.8 |
| 20260902062916 | 66 | 0 | 0.0 | 0.0 | 0.00 | 0.00 | 0.00 | 67 | 1020.9 |
| 20260902061803 | 66 | 0 | 0.0 | 0.0 | 0.00 | 0.00 | 0.00 | 66 | 1020.8 |
| 20260902060903 | 66 | 0 | 0.0 | 0.0 | 0.00 | 0.00 | 0.00 | 66 | 1020.8 |
| 20260902060004 | 67 | 0 | 0.0 | 0.0 | 0.00 | 0.00 | 0.00 | 65 | 1020.9 |
| 20260902055403 | 67 | 0 | 0.0 | 0.0 | 0.00 | 0.00 | 0.00 | 65 | 1021.0 |
| 20260902054717 | 67 | 107 | 0.0 | 2.0 | 0.00 | 0.00 | 0.00 | 64 | 1020.9 |
| 20260902053603 | 67 | 0 | 0.0 | 0.0 | 0.00 | 0.00 | 0.00 | 64 | 1020.7 |
| 20260902052703 | 68 | 107 | 0.0 | 2.0 | 0.00 | 0.00 | 0.00 | 64 | 1020.7 |
| 20260902052019 | 68 | 107 | 0.0 | 2.0 | 0.00 | 0.00 | 0.00 | 63 | 1020.7 |
| 20260902050903 | 68 | 0 | 0.0 | 0.0 | 0.00 | 0.00 | 0.00 | 63 | 1020.7 |
| 20260902050004 | 68 | 0 | 0.0 | 0.0 | 0.00 | 0.00 | 0.00 | 62 | 1020.9 |
| 20260902045617 | 68 | 0 | 0.0 | 0.0 | 0.00 | 0.00 | 0.00 | 62 | 1021.0 |
| 20260902044503 | 69 | 0 | 0.0 | 0.0 | 0.00 | 0.00 | 0.00 | 62 | 1021.0 |
| 20260902043603 | 69 | 0 | 0.0 | 0.0 | 0.00 | 0.00 | 0.00 | 61 | 1021.1 |
| 20260902042703 | 70 | 0 | 0.0 | 0.0 | 0.00 | 0.00 | 0.00 | 60 | 1021.4 |
| 20260902041803 | 70 | 107 | 0.0 | 2.0 | 0.00 | 0.00 | 0.00 | 60 | 1021.4 |
| 20260902041118 | 70 | 107 | 0.0 | 2.0 | 0.00 | 0.00 | 0.00 | 60 | 1021.4 |
| 20260902040003 | 71 | 0 | 0.0 | 0.0 | 0.00 | 0.00 | 0.00 | 59 | 1021.5 |
| 20260902035403 | 71 | 0 | 0.0 | 0.0 | 0.00 | 0.00 | 0.00 | 59 | 1021.5 |
| 20260902034503 | 71 | 101 | 0.0 | 3.0 | 0.00 | 0.00 | 0.00 | 58 | 1021.5 |
| 20260902033603 | 71 | 101 | 0.0 | 2.0 | 0.00 | 0.00 | 0.00 | 58 | 1021.5 |
| 20260902032703 | 71 | 0 | 0.0 | 0.0 | 0.00 | 0.00 | 0.00 | 57 | 1021.4 |
| 20260902031803 | 72 | 0 | 0.0 | 0.0 | 0.00 | 0.00 | 0.00 | 56 | 1021.4 |
| 20260902030903 | 72 | 0 | 0.0 | 0.0 | 0.00 | 0.00 | 0.00 | 55 | 1021.3 |
| 20260902030003 | 72 | 0 | 0.0 | 0.0 | 0.00 | 0.00 | 0.00 | 54 | 1021.2 |
| 20260902025403 | 72 | 0 | 0.0 | 0.0 | 0.00 | 0.00 | 0.00 | 54 | 1021.1 |
| 20260902024503 | 72 | 0 | 0.0 | 0.0 | 0.00 | 0.00 | 0.00 | 54 | 1020.9 |
| 20260902023819 | 72 | 140 | 0.0 | 2.0 | 0.00 | 0.00 | 0.00 | 53 | 1020.6 |
| 20260902022703 | 72 | 126 | 1.0 | 4.0 | 0.00 | 0.00 | 0.00 | 51 | 1020.4 |
| 20260902021803 | 73 | 120 | 1.0 | 4.0 | 0.00 | 0.00 | 0.00 | 50 | 1020.1 |
| 20260902020903 | 73 | 117 | 1.0 | 3.0 | 0.00 | 0.00 | 0.00 | 51 | 1020.0 |
| 20260902020003 | 74 | 128 | 0.0 | 2.0 | 0.00 | 0.00 | 0.00 | 49 | 1019.8 |
| 20260902015403 | 74 | 145 | 0.0 | 2.0 | 0.00 | 0.00 | 0.00 | 49 | 1019.7 |
| 20260902014503 | 75 | 163 | 0.0 | 3.0 | 0.00 | 0.00 | 0.00 | 48 | 1019.6 |
| 20260902013603 | 76 | 174 | 0.0 | 3.0 | 0.00 | 0.00 | 0.00 | 46 | 1019.7 |
| 20260902012918 | 76 | 161 | 1.0 | 3.0 | 0.00 | 0.00 | 0.00 | 45 | 1019.7 |
| 20260902011803 | 77 | 122 | 1.0 | 3.0 | 0.00 | 0.00 | 0.00 | 46 | 1019.7 |
| 20260902011117 | 78 | 147 | 2.0 | 6.0 | 0.00 | 0.00 | 0.00 | 44 | 1019.7 |
| 20260902010003 | 79 | 152 | 2.0 | 6.0 | 0.00 | 0.00 | 0.00 | 44 | 1019.6 |